User: anonymous   Login
Location: Unspecified
(0.0000°N, 0.0000°E)
Time: 23:15:18
(UTC+00:00)
Language:

UNISAT 3 - Orbit

View from above orbital plane
View from above orbital plane
View from above satellite
View from above satellite

Ground track
Ground track

The orbit data is extracted from the following two-line orbital elements,

1 28373U 04025H   18109.38627381  .00000069  00000-0  31739-4 0  9993
2 28373  98.3708  51.5083 0069117   2.1026 358.0443 14.45472417728134
Epoch (UTC): 19 April 2018 09:16:14
Eccentricity: 0.0069117
inclination: 98.3708°
perigee height: 691 km
apogee height: 789 km
right ascension of ascending node: 51.5083°
argument of perigee: 2.1026°
revolutions per day: 14.45472417
mean anomaly at epoch: 358.0443°
orbit number at epoch: 72813

The dashed part of the orbit path shows where the satellite is in the earth's shadow,  

DLR